Regional Weather Roundup
Issued by NWS

Home | Current Version | Previous Version | Text Only | Print | Product List | Glossary On
Versions: 1 2 3 4 5 6 7 8 9 10 11 12 13 14 15 16 17 18 19 20 21 22 23 24 25 26 27 28 29 30 31 32 33 34 35 36 37 38 39 40 41 42 43 44 45 46 47 48 49 50
931
ASUS43 KMKX 161721
RWRWI

WISCONSIN REGIONAL WEATHER ROUNDUP
NATIONAL WEATHER SERVICE MILWAUKEE/SULLIVAN WI
1200 PM CDT WED AUG 16 2017

NOTE: "FAIR" INDICATES FEW OR NO CLOUDS BELOW 12,000 FEET WITH NO
SIGNIFICANT WEATHER AND/OR OBSTRUCTIONS TO VISIBILITY.

WIZ001-002-006>008-014>016-023>028-161800-
NORTHWEST WISCONSIN

CITY           SKY/WX    TMP DP  RH WIND       PRES   REMARKS
SUPERIOR ARPT    N/A     64  60  89 E13G20    29.97S
ASHLAND        CLOUDY    69  61  75 N8        29.99F
HAYWARD        CLOUDY    68  59  73 SE6       29.97F
SIREN          CLOUDY    69  62  76 SE9       29.93F
CUMBERLAND     LGT RAIN  63  61  94 SE7       29.95F
RICE LAKE      CLOUDY    67  62  84 E7        29.96F
CHETEK         LGT RAIN  66  63  88 SE12G17   29.93F
LADYSMITH      PTSUNNY   72  60  64 SE7       29.99F
EAU CLAIRE     PTSUNNY   75  63  66 SE12      29.93F
MENOMONIE      MOSUNNY   74  64  70 E13G18    29.93F
NEW RICHMOND   CLOUDY    69  63  82 E8        29.91F
OSCEOLA        CLOUDY    71  64  80 SE10      29.93F
$$

WIZ003>005-009-010-017-018-161800-
NORTH CENTRAL WISCONSIN

CITY           SKY/WX    TMP DP  RH WIND       PRES   REMARKS
MANITOWISH WTR MOSUNNY   70  61  73 SE9       30.03F
ARBOR VITAE    MOSUNNY   72  60  67 SE9       30.03F
WOODRUFF       MOSUNNY   72  60  67 SE9       30.03F
RHINELANDER    CLOUDY    71  59  65 VRB7      30.04F
EAGLE RIVER    MOSUNNY   71  56  60 SE7       30.04F
LAND O LAKES   SUNNY     72  54  53 S8        30.05F
PHILLIPS       CLOUDY    70  59  68 SE9       30.00F
TOMAHAWK         N/A     69  58  68 CALM      30.03F
MEDFORD        MOSUNNY   70  60  70 E8        30.01S
MERRILL        NOT AVBL
$$

WIZ029-030-035-036-043>047-161800-
CENTRAL WISCONSIN

CITY           SKY/WX    TMP DP  RH WIND       PRES   REMARKS
WAUSAU         MOSUNNY   70  58  65 SE9       30.01F
MOSINEE        MOSUNNY   72  61  68 SE10      30.03F
MARSHFIELD     MOSUNNY   73  59  61 SE14      30.00S
STEVENS POINT  MOSUNNY   71  59  65 SE12      30.02F
WAUPACA        MOSUNNY   78  61  55 E9        30.02F
WAUTOMA        SUNNY     76  59  55 E9        30.01F
WISC RAPIDS    MOSUNNY   76  60  57 E10       30.01F
CAMP DOUGLAS   MOSUNNY   79  63  57 E13       29.97F HX  80
$$

WIZ011>013-019>022-031-037>040-048>050-161800-
NORTHEAST WISCONSIN

CITY           SKY/WX    TMP DP  RH WIND       PRES   REMARKS
ANTIGO         CLOUDY    69  58  69 SE9       30.05F
SHAWANO        CLOUDY    74  60  60 E7        30.03F
OCONTO         SUNNY     71  60  67 E8        30.03F
STURGEON BAY   SUNNY     71  62  73 NE5       30.04F
GREEN BAY      MOSUNNY   73  65  75 NE10      30.02F
MANITOWOC      MOSUNNY   72  63  73 E8        30.04R
APPLETON       MOSUNNY   73  55  53 VRB6      30.01
CLINTONVILLE   MOSUNNY   72  59  64 E6        30.02F
OSHKOSH        SUNNY     74  63  68 E8        30.01F
$$

WIZ032>034-041-042-053>061-161800-
SOUTHWEST WISCONSIN

CITY           SKY/WX    TMP DP  RH WIND       PRES   REMARKS
LA CROSSE      SUNNY     81  64  56 E12       29.91F HX  82
SPARTA         CLOUDY    78  63  60 SE9       29.95F HX  80
VIROQUA        SUNNY     76  67  73 SE10      29.94F
BOSCOBEL       SUNNY     81  65  58 NE7       29.92F HX  83
PRAIRIE DU CHI SUNNY     80  66  63 E9        29.90F HX  82
PLATTEVILLE    SUNNY     78  72  80 E12       29.95F HX  81
$$

WIZ056-057-062-063-064-067-068-161800-
SOUTH CENTRAL WISCONSIN

CITY           SKY/WX    TMP DP  RH WIND       PRES   REMARKS
REEDSBURG      PTSUNNY   78  62  57 E9        29.97F HX  80
BARABOO/DELLS  SUNNY     79  57  47 E8        29.98F HX  80
LONE ROCK      SUNNY     78  67  68 E12       29.95F HX  80
MINERAL POINT  SUNNY     81  70  69 E9        29.96F HX  84
MADISON        PTSUNNY   78  65  63 SE10      29.97F HX  80
MIDDLETON      SUNNY     78  62  58 E9        29.99F HX  80
WATERTOWN      SUNNY     78  67  69 E8        29.99F HX  80
MONROE         SUNNY     77  64  65 E8        29.97F
JANESVILLE     MOSUNNY   82  68  61 SE9       29.96F HX  85
$$

WIZ051-052-058>065-066-070>072-161800-
SOUTHEAST WISCONSIN

CITY           SKY/WX    TMP DP  RH WIND       PRES   REMARKS
MILWAUKEE      MOSUNNY   76  64  66 E10       30.01F
WAUKESHA       SUNNY     77  64  65 E9        30.02F
MILWAUKEE/TIMM MOSUNNY   75  61  60 E9        30.02F
RACINE         SUNNY     76  66  71 SE7       30.03S
KENOSHA        SUNNY     78  65  63 SE10      30.01S HX  80
FOND DU LAC    PTSUNNY   77  58  51 VRB3      30.01S
SHEBOYGAN      SUNNY     73  65  75 VRB6      30.03S
WEST BEND      MOSUNNY   75  63  64 E6        30.02S
JUNEAU         SUNNY     76  63  63 E6        30.02S
$$

LSZ147-162-161800-
LAKE SUPERIOR

STATION/POSITION TIME  TEMP    WIND        PRES    WAVE
                       AIR SEA DIR/SP/G            HT/PER
                 (UTC) (F)     (DEG/KT/KT) (MB)    (FT/S)
W MID LAKE BUOY  1650   61 61  110/  4/  6 1016.6S   1/ 3
DEVILS ISLAND    1700   62      70/ 11/ 11 1015.9F
PORT WING        1440   65      30/  8/  9 1015.9
SAXON HARBOR     1630   67      30/  8/ 10 1015.2S
$$

LMZ867-665-643>646-161800-
LAKE MICHIGAN

STATION/POSITION TIME  TEMP    WIND        PRES    WAVE
                       AIR SEA DIR/SP/G            HT/PER
                 (UTC) (F)     (DEG/KT/KT) (MB)    (FT/S)
S GREEN BAY BUOY 1700   67 71   50/ 10/ 14 1016.7
N MID LAKE BUOY  1650   66 68  100/  6/  6 1017.9F   1
NORTHPORT PIER   1640   67      70/  9/ 10 1017.3F
KEWAUNEE LAKESHO 1654   71      40/  3/  8 1016.5R
SHEBOYGAN LAKESH 1700   67      60/  5/  5 1016.5R
PORT WASHINGTON  1630   72     100/  5/  6 1017.6R
ATWATER BUOY     1609   70 71   90/  6/  8 1016.6F
MILWAUKEE LAKESH 1700   72      70/  6/  7   N/A
S MID LAKE BUOY  1650   72 72   80/  6/  6 1016.2F   1
KENOSHA   LAKESH 1700   73      90/  5/  7 1015.9
$$

TC  - TEMPERATURE IN CELSIUS
VSB - VISIBILITY IN STATUTE MILES
WCI - WIND CHILL INDEX
HX  - HEAT INDEX





USA.gov is the U.S. government's official web portal to all federal, state and local government web resources and services.